C/2007 F1 (LONEOS)

Epoch 2007 Oct. 27.0 TT = JDT 2454400.5  

T 2007 Oct. 28.75931 TT                                 Nakano

q   0.4024017            (2000.0)            P               Q

z  -0.0001553      Peri.  153.70617     +0.91375094     +0.39076294

 +/-0.0000412      Node   172.88844     -0.08276003     -0.08891848

e   1.0000625      Incl.  116.08508     +0.39775621     -0.91618657

From 185 observations 2007 Mar. 19-Nov. 11, mean residual 0".81.

   Nongravitational parameters A1 = +1.48 +/- 0.17, A2 = +0.5932 +/- 0.0774.

   (1/a)org.= +0.000824, (1/a)fut.= -0.000374 (+/-0.000041), Q= 6.

Residuals in seconds of arc 

2007/                     070408 673  0.8+  0.9+    070527 J70 (6.1-  3.8-) 

070319 699  0.0   0.4-    070408 850 (0.0   2.1-)   070527 J70 (4.3-  0.5-) 

070319 699  0.5-  0.2-    070408 673  0.8+  0.9+    070607 215  0.3-  0.6-  

070319 699  0.6+  0.8-    070408 850 (0.1+  2.0-)   070707 204  0.9+  1.1+  

070319 699 (0.5+  4.0-)   070408 850 (2.2+  0.5-)   070707 204  0.7+  0.1+  

070319 673  0.5-  0.1+    070408 246  1.1+  1.1+    070725 204  0.1+  0.4-  

070319 673  1.0+  1.4-    070408 246  0.5+  0.5+    070919 349 (2.5+  0.9-) 

070319 673  0.6+  0.2-    070408 246  0.6-  0.6+    070919 349  1.8+  0.1-  

070319 673  1.1+  0.3-    070408 246  0.7-  0.4+    070919 349  1.5+  0.2-  

070319 474  0.5+  1.4-    070408 246  0.1-  1.7+    070920 349  1.1+  0.1+  

070319 474  1.1+  0.5-    070408 246 (0.7-  2.3+)   070920 D81 (1.5+  3.4-) 

070319 474 (1.4+  6.2-)   070408 246  0.4-  0.9+    070920 349  1.0+  0.0   

070320 651  0.1-  1.0+    070408 473  1.2+  1.1+    070920 349  0.7+  0.1-  

070320 651  0.4+  1.4+    070408 473 (1.3+  2.0+)   070920 D81  0.2-  0.5+  

070320 H55  0.2+  0.3+    070410 246  1.8-  0.6-    070921 204  0.5+  0.4-  

070320 H55  0.9-  0.6+    070410 246  1.9-  0.2+    070921 204  0.5+  0.6-  

070320 H55  0.5-  0.1+    070410 246  1.2-  0.2-    070923 204  0.7+  0.6-  

070320 673  0.1-  0.2+    070410 246 (2.1-  0.9+)   070923 204  0.1+  0.2-  

070320 673  0.4+  0.1+    070410 246  1.4-  0.4+    071004 A77  1.3+  0.3+  

070320 673  0.8+  0.4+    070410 246  1.0-  0.5-    071004 A77  1.6+  0.5+  

070320 673  0.1-  0.3+    070411 A32 (0.9-  3.3-)   071004 A77  1.9-  0.5-  

070320 235  0.6-  0.1-    070411 215 (2.4+  4.8+)   071004 A77  0.9-  0.6-  

070320 473  0.4+  0.4+    070411 A32 (0.6-  3.5-)   071005 349  1.2-  1.5+  

070320 473  0.7+  0.8-    070412 561  0.7-  0.1+    071005 349  1.0-  1.1+  

070321 J95  0.7-  0.5-    070412 561  1.8+  0.3-    071005 349  0.9-  1.3+  

070321 J95  0.3-  0.9-    070412 561 (4.4+  2.0-)   071005 349  1.2-  1.6+  

070321 J95  1.9-  0.1+    070412 A32  0.5-  1.1+    071005 900  0.6+  0.1-  

070321 850  0.4+  0.5-    070412 A32  0.4+  0.4-    071005 900  1.4-  1.4+  

070321 850  0.0   0.2+    070413 246  0.3+  1.0-    071006 349  0.1+  0.6+  

070321 658  0.6-  1.2+    070413 246  1.1+  0.5-    071006 349  0.1-  0.6+  

070321 658  1.2-  0.1-    070413 246  1.3+  0.0     071006 349  0.5-  1.3+  

070321 658  0.1-  0.7+    070413 246  1.2+  0.3-    071006 349  0.4-  1.4+  

070321 850  0.7-  1.0-    070413 246  1.2+  0.7+    071006 349  0.4-  1.3+  

070321 J95  0.6-  0.2-    070413 246  0.8+  1.3+    071007 213  0.3+  0.0   

070321 J95  0.7-  0.5-    070415 246  0.5-  1.0+    071007 213  0.4-  0.6-  

070322 300  0.5-  0.0     070415 246  0.3+  0.8+    071007 213  0.4-  0.6-  

070322 300  0.5-  0.9+    070415 246  0.0   0.7+    071008 629  0.2+  0.6+  

070322 300  0.6+  0.3+    070415 246  0.1-  0.2-    071008 629  0.2+  0.8+  

070322 213  0.4-  0.6+    070415 246  0.4+  0.3+    071008 629  0.4+  0.5+  

070322 213  0.4-  0.7+    070415 246  0.3+  0.1-    071008 629  0.6-  0.7+  

070322 213  0.6-  0.4+    070415 246  0.7-  1.2-    071014 A18  1.3-  0.9-  

070322 213  0.7-  0.4+    070416 A32 (7.1+  5.5-)   071015 A77  0.8+  0.5-  

070322 213  1.2-  0.3+    070419 215  0.1-  0.6-    071015 A77  0.1+  0.1-  

070322 J70 (8.3-  5.6-)   070420 850 (5.8+  3.5+)   071016 A97  0.1+  0.6-  

070322 J70 (5.7-  6.2-)   070420 850  1.7+  1.5-    071016 A97  0.5-  0.7-  

070323 850  0.5-  1.3-    070421 224 (0.3+  2.3+)   071016 A97  0.3+  0.3+  

070323 850  0.0   1.8-    070421 224  0.4+  1.4+    071016 A97  1.4+  1.3+  

070323 850  0.7+  0.0     070421 224  0.8-  0.9-    071016 A97  0.2-  0.5-  

070323 152  1.5-  0.0     070422 850  0.0   0.5+    071016 A97  0.7-  0.9-  

070323 152  0.4-  1.1-    070422 850 (1.0+  2.1-)   071019 A77  0.1-  0.2-  

070323 152  0.1+  0.9-    070429 585 (2.7-  0.1+)   071019 A77  0.2-  0.1-  

070323 152 (1.6+  3.7-)   070429 585  0.1-  1.0-    071020 349  0.4+  1.3-  

070324 152  0.9-  0.9+    070429 585 (2.0-  0.7-)   071020 349  1.2+  1.2-  

070324 152  1.6+  1.8-    070430 A33  0.3+  0.2+    071020 349  1.0+  0.8-  

070324 152 (1.0+  2.7+)   070504 349 (3.1+  0.8-)   071020 349  0.5+  1.1-  

070324 152  1.7+  0.3+    070504 349 (2.6+  1.4-)   071020 A77 (2.5-  1.5+) 

070325 585  1.9-  1.3-    070508 J70 (1.1+  3.1+)   071020 A77 (4.0-  0.9-) 

070325 585  0.2+  1.4-    070508 J70 (1.6+  3.2+)   071020 A77 (2.5-  0.9-) 

070325 585 (2.6-  1.5-)   070510 473 (4.1+  1.8-)   071020 A77  0.5-  0.0   

070325 372  0.5-  0.7+    070510 473 (2.6+  2.0-)   071020 A77  0.7-  0.9-  

070325 372  0.1+  0.3+    070510 473  0.8-  0.5+    071020 A77  0.6+  0.1+  

070405 585  0.5+  0.4+    070511 104  0.8-  0.2+    071020 A77 (1.6-  2.6-) 

070405 585  0.9-  0.5-    070511 104  0.7-  0.0     071021 349  0.0   0.5-  

070405 585 (2.4+  0.6-)   070511 104  0.9-  1.3+    071021 349  0.2-  0.5-  

070405 585  0.7+  1.7-    070511 104  0.8-  0.3+    071021 349  0.2-  0.3-  

070407 673  0.4-  0.0     070511 104  0.3+  0.2+    071021 349  0.1-  0.4-  

070407 673  0.3+  0.2+    070511 J70 (3.2+  2.3-)   071022 510  1.1-  0.1-  

070407 673  0.3-  0.5+    070511 J70 (3.9+  2.0-)   071022 510  1.1-  0.0   

070407 673  0.1+  0.8-    070511 J70 (3.8+  2.4-)   071028 349  1.1-  0.4+  

070408 850 (3.9+  6.8+)   070512 213  0.8+  0.1+    071028 349  1.3-  0.3+  

070408 850 (4.5+  7.2+)   070512 213  1.0+  0.1-    071028 349  1.0-  0.0   

070408 673  0.3-  0.2+    070514 585  0.2+  0.8+    071103 349  0.1-  1.3+  

070408 673  0.2-  0.0     070514 585  1.5-  1.6-    071103 349  0.4+  1.4+  

070408 850  0.7+  0.2-    070514 585  1.7+  0.1-    071111 415  0.7+  1.8-  

070408 673  0.3+  0.8+    070518 147  1.0+  0.2+    071111 415  0.9+  1.3-  

070408 673  0.6+  0.8+    070518 147  0.7+  1.8-                            

070408 850  1.3+  1.0-    070519 215  1.3-  0.3-                            



NAKANO

         **** Don't distribute anyone except personal use only ****

                (C) Copyright 2007 OAA/ComputingSection

write mail from CFAD0::NAKANO on 2007-11-30 09:05:11(JST).

 



    C/2007 F1 (LONEOS)

Epoch 2007 Oct. 27.0 TT = JDT 2454400.5  

T 2007 Oct. 28.76009 TT                                 Nakano

q   0.4023818            (2000.0)            P               Q

z  -0.0002172      Peri.  153.71125     +0.91378553     +0.39068147

 +/-0.0000078      Node   172.88833     -0.08277194     -0.08890696

e   1.0000874      Incl.  116.08477     +0.39767426     -0.91622243

From 157 observations 2007 Mar. 19-Oct. 16, mean residual 0".80.

   (1/a)org.= +0.000821, (1/a)fut.= -0.000042 (+/-0.000008), Q= 7.



NAKANO

         **** Don't distribute anyone except personal use only ****

                (C) Copyright 2007 OAA/ComputingSection

write mail from CFAD0::NAKANO on 2007-10-18 07:23:28(JST).

 

◎C/2007 F1の軌道と予報位置



 上尾の門田健一氏は,9月19日に明け方低空にあるこの彗星の観測に成功しま

した.氏の CCD全光度は10.6等,1'.5のコマが見られるとのことです.

 天文ガイド10月号で紹介したとおり,この彗星は明るくなることが期待されて

います.現在,眼視光度9等級で観測されており,このまま,順調に成長すると

3等〜4等級まで明るくなるでしょう.なお,彗星の(1/a)originは,+0.000823

と大きく,彗星は,オールトの彗星雲の内側から来た彗星のようです.このこと

からも,今後の増光を期待できます.



    C/2007 F1 (LONEOS)

Epoch 2007 Oct. 27.0 TT = JDT 2454400.5  

T 2007 Oct. 28.75735 TT                                 Nakano

q   0.4023608            (2000.0)            P               Q

z  -0.0002156      Peri.  153.71211     +0.91379082     +0.39066778

 +/-0.0000229      Node   172.88810     -0.08278480     -0.08889078

e   1.0000868      Incl.  116.08371     +0.39765943     -0.91622984

From 127 observations 2007 Mar. 19-Sept. 19, mean residual 0".82.

   (1/a)org.= +0.000823, (1/a)fut.= -0.000040 (+/-0.000023), Q= 6.



位置予報(高度と方位)は,夕方と明け方の薄暮時(太陽高度= -6゚)のものです.



2007/        α  (2000) δ      △      r    Daily motion  Elong. Phase    m1    PA/Tail    薄暮開始時 

 29h JST    h  m       。  ,        AU      AU      ,     。     。      。      等    。  。       h。    A 。 

Sept.20   11 38.78  +28 09.2    1.774   0.994    32.4/ 92    27.3   27.5    9.2  354/2.71   +12.0  243.8

     21   11 41.23  +28 08.3    1.746   0.976    33.5/ 92    27.7   28.5    9.1  353/2.84   +12.4  244.1

     22   11 43.76  +28 07.1    1.718   0.957    34.6/ 92    28.0   29.6    9.0  353/2.99   +12.8  244.4

     23   11 46.37  +28 05.7    1.689   0.938    35.8/ 93    28.4   30.6    8.9  352/3.13   +13.2  244.7

     24   11 49.08  +28 03.9    1.660   0.919    37.1/ 93    28.8   31.8    8.7  352/3.29   +13.5  245.0

     25   11 51.88  +28 01.8    1.630   0.900    38.6/ 94    29.2   32.9    8.6  352/3.46   +13.9  245.3

     26   11 54.78  +27 59.3    1.600   0.881    40.1/ 94    29.6   34.2    8.5  351/3.64   +14.2  245.5

     27   11 57.80  +27 56.3    1.570   0.861    41.7/ 95    29.9   35.5    8.3  351/3.83   +14.5  245.8

     28   12 00.93  +27 52.7    1.539   0.842    43.5/ 95    30.3   36.8    8.2  351/4.04   +14.7  246.0

     29   12 04.19  +27 48.4    1.508   0.823    45.4/ 96    30.6   38.3    8.0  351/4.25   +15.0  246.3

     30   12 07.59  +27 43.4    1.477   0.804    47.4/ 97    30.9   39.8    7.9  351/4.49   +15.2  246.5

Oct.  1   12 11.14  +27 37.5    1.445   0.785    49.7/ 98    31.2   41.4    7.7  351/4.73   +15.3  246.7

